Regional Weather Roundup
Issued by NWS

Home | Current Version | Previous Version | Graphics & Text | Print | Product List | Glossary On
Versions: 1 2 3 4 5 6 7 8 9 10 11 12 13 14 15 16 17 18 19 20 21 22 23 24 25 26 27 28 29 30 31 32 33 34 35 36 37 38 39 40 41 42 43 44 45 46 47 48 49 50
000
ASUS45 KBOI 302310
RWRID

IDAHO REGIONAL WEATHER ROUNDUP
NATIONAL WEATHER SERVICE BOISE ID
500 PM MDT THU MAR 30 2017

NOTE: "FAIR" INDICATES FEW OR NO CLOUDS BELOW 12000 FEET
WITH NO SIGNIFICANT WEATHER AND/OR OBSTRUCTIONS TO VISIBILITY

IDZ012-014-310000-
SOUTHWEST IDAHO


CITY           SKY/WX    TMP DP  RH WIND       PRES   REMARKS
BOISE          LGT RAIN  39  37  92 NW29G41   29.80R FOG     WCI  27
CALDWELL       LGT RAIN  43  34  70 NW21G29   29.88R
MOUNTAIN HOME  LGT RAIN  38  38 100 NW40G47   29.76R WCI  24
$$

IDZ016-017-310000-
SOUTHCENTRAL IDAHO


CITY           SKY/WX    TMP DP  RH WIND       PRES   REMARKS
BURLEY         LGT SNOW  34  31  88 W22G31    29.71R FOG     WCI  22
JEROME         CLOUDY    34  33  96 SW25G35   29.69F FOG     WCI  21
TWIN FALLS     LGT SNOW  33  32  96 W26G35    29.73R FOG     WCI  20
$$

IDZ019>023-310000-
SOUTHEAST IDAHO


CITY           SKY/WX    TMP DP  RH WIND       PRES   REMARKS
IDAHO FALLS    CLOUDY    50  43  77 NE9       29.62S
POCATELLO      CLOUDY    37  35  92 SW22      29.69R WCI  26
REXBURG        CLOUDY    47  42  83 E10       29.63S
$$

IDZ006-010-011-018-031-032-310000-
CENTRAL IDAHO MOUNTAINS


CITY           SKY/WX    TMP DP  RH WIND       PRES   REMARKS
MCCALL         CLOUDY    33  23  66 N21G28    29.83R WCI  21
HAILEY         LGT SNOW  36  36 100 E6        29.66R WCI  31
STANLEY          N/A     33  31  92 NW10G21   29.68R WCI  25
SALMON         CLOUDY    46  32  57 N15G25    29.70R
CHALLIS        LGT RAIN  42  37  82 NW14      29.67R
$$

IDZ002-004-006-007-026-310000-
NORTHERN IDAHO


CITY           SKY/WX    TMP DP  RH WIND       PRES   REMARKS
LEWISTON       CLOUDY    52  34  50 NW8       30.00S
LOWELL           N/A     45  41  86 CALM      30.00R
COEUR D`ALENE  LGT RAIN  45  38  76 SW6       29.99R
MULLAN PASS    PTSUNNY   35  29  78 N6        29.90R WCI  30
$$



USA.gov is the U.S. government's official web portal to all federal, state and local government web resources and services.